Location: Delettes
(50.6178°N, 2.2123°E)
Time: 13:56:09
(UTC+00:00)

STARLINK-1038 - Pass Details

Date: 27 February 2020
Orbit: 548 x 551 km, 53.0° (Epoch: 28 March)

Event Time Altitude Azimuth Distance (km) Brightness Sun altitude
Rises 18:19:02 0° 217° (SW) 2,706 7.8 -8.8°
Reaches altitude 10° 18:21:23 10° 208° (SSW) 1,816 6.7 -9.2°
Maximum altitude 18:25:07 34° 143° (SE) 919 4.5 -9.8°
Enters shadow 18:28:08 14° 84° (E) 1,563 5.3 -10.3°
